Terug naar catalogus

SL-16 DEB

ActiefLEO
NORAD 24300·DEBRIS·🇷🇺 Russia

Gelanceerd Sep 4, 1996 vanaf Baikonur Cosmodrome

Loading…

Volgende Passages (komende 24 uur)

TLE

VersSource: Space-Track

Epoch: Sep 14, 2026, 13:44 UTC

1 24300U 96051D   26257.57255855  .00000065  00000-0  98978-4 0  9990
2 24300  71.0270 296.3649 0196799 318.1095 115.1400 13.74799510505575

Volg SL-16 DEB in realtime met AllMySat

Download on the App Store